Вернуться в каталог

NOVA 2

АктивенНавигацияPO
NORAD 19223·PAYLOAD·🇺🇸 United States

Запущен Jun 16, 1988 с Vandenberg Space Force Base

Loading…

Ближайшие Пролёты (ближайшие 24 часа)

TLE

СвежийSource: Space-Track

Эпоха: Sep 14, 2026, 12:10 UTC

1 19223U 88052A   26257.50754546  .00000016  00000-0  17915-4 0  9992
2 19223  89.9784  77.8087 0029702 336.8410  38.4254 13.22964241845946

Отслеживайте NOVA 2 в реальном времени с AllMySat

Download on the App Store